Regional Weather Roundup
Issued by NWS Little Rock, AR

Home | Current Version | Previous Version | Text Only | Print | Product List | Glossary Off
Versions: 1 2 3 4 5 6 7 8 9 10 11 12 13 14 15 16 17 18 19 20 21 22 23 24 25 26 27 28 29 30 31 32 33 34 35 36 37 38 39 40 41 42 43 44 45 46 47 48 49 50

000
ASUS44 KLZK 210505
RWRLZK

WEATHER ROUNDUP FOR ARKANSAS
NATIONAL WEATHER SERVICE LITTLE ROCK AR
1200 AM CDT THU AUG 21 2014

NOTE: "FAIR" INDICATES FEW OR NO CLOUDS BELOW 12,000 FEET WITH NO
SIGNIFICANT WEATHER AND/OR OBSTRUCTIONS TO VISIBILITY.

ARZ001-003-010-029-210600-
NORTHWEST ARKANSAS

CITY           SKY/WX    TMP DP  RH WIND       PRES   REMARKS
FAYETTEVILLE   CLEAR     76  68  76 SE5       30.02R
FORT SMITH     CLEAR     79  71  76 NE8       29.98R
HARRISON       CLEAR     78  69  73 S10       30.04R
BENTONVILLE    CLEAR     79  66  65 S5        30.02S
ROGERS         CLEAR     77  67  71 S9        30.03R
SILOAM SPGS    CLEAR     79  64  61 S9        30.02R
HIGHFILL       CLEAR     76  67  73 S9        30.01R
$$

ARZ004-005-016-210600-
NORTH CENTRAL ARKANSAS

CITY           SKY/WX    TMP DP  RH WIND       PRES   REMARKS
BATESVILLE     CLEAR     81  72  74 S3        30.03S
FLIPPIN        PTCLDY    79  64  61 S3        30.02S
MTN HOME       PTCLDY    76  66  71 S5        30.02R
$$

ARZ040-041-210600-
WEST CENTRAL ARKANSAS

CITY           SKY/WX    TMP DP  RH WIND       PRES   REMARKS
MENA           CLEAR     84  72  65 CALM      30.03S HX  89
MOUNT IDA      CLEAR     80  71  74 VRB3      30.01R
$$

ARZ009-017-025-026-028-210600-
NORTHEAST ARKANSAS

CITY           SKY/WX    TMP DP  RH WIND       PRES   REMARKS
CORNING        FAIR      81  73  78 SW12      30.01F HX  85
JONESBORO      CLEAR     77  73  87 SW6       30.02F
NEWPORT        CLEAR     77  74  90 S6        30.04S
WALNUT RIDGE   PTCLDY    79  72  78 S10       30.01F
BLYTHEVILLE    CLEAR     78  74  87 S6        30.03F
$$

ARZ022-023-033-042-044-210600-
CENTRAL ARKANSAS

CITY           SKY/WX    TMP DP  RH WIND       PRES   REMARKS
LITTLE ROCK    CLEAR     79  73  82 SE7       30.02S
N LITTLE ROCK  CLEAR     80  75  85 S5        30.02S HX  85
JACKSONVILLE   CLEAR     76  74  93 E3        30.02F
SEARCY           N/A     77  75  93 CALM        N/A
HOT SPRINGS    CLEAR     82  73  74 S5        30.03S HX  87
RUSSELLVILLE   CLEAR     76  72  87 CALM      30.01S
CLINTON        FAIR      73  70  88 CALM      30.04S
$$

ARZ036-210600-
EAST ARKANSAS

CITY           SKY/WX    TMP DP  RH WIND       PRES   REMARKS
WEST MEMPHIS   CLEAR     77  75  93 S3        30.03F
$$

ARZ050-053-066-070-073-210600-
SOUTHWEST ARKANSAS

CITY           SKY/WX    TMP DP  RH WIND       PRES   REMARKS
ARKADELPHIA    FAIR      77  77 100 CALM      30.03R FOG
CAMDEN         CLEAR     77  70  78 S5        30.04R
TEXARKANA      CLEAR     79  67  66 S7        30.03R
EL DORADO      CLEAR     75  69  81 S6        30.06R
DE QUEEN       CLEAR     80  72  76 VRB3      29.99R
$$

ARZ056-057-069-210600-
SOUTHEAST ARKANSAS

CITY           SKY/WX    TMP DP  RH WIND       PRES   REMARKS
PINE BLUFF     CLEAR     75  72  90 SE5       30.03R
STUTTGART      CLEAR     79  72  78 SE7       30.04S
MONTICELLO     CLEAR     78  73  84 S5        30.05R

$$





USA.gov is the U.S. government's official web portal to all federal, state and local government web resources and services.